Graham, TX

10:50 PM CST on February 07, 2016 (GMT -0600)
Graham

Weather History for KRPH - December, 2013

Change the Weather History Date:

Friday, December 27, 2013

  Actual Average (KMWL) Record (KMWL)
Temperature  
Mean Temperature 40 °F -  
Max Temperature 58 °F 55 °F 79 °F (2005)
Min Temperature 21 °F 31 °F 21 °F (2007)
Degree Days  
Heating Degree Days 26    
Moisture  
Dew Point 24 °F    
Average Humidity 61    
Maximum Humidity 93    
Minimum Humidity 24    
Precipitation  
Precipitation 0.00 in - - ()
Sea Level Pressure  
Sea Level Pressure 30.36 in    
Wind  
Wind Speed 2 mph (SSE)    
Max Wind Speed 8 mph    
Max Gust Speed -    
Visibility 10 miles    
Events      
Averages and records for this station are not official NWS values.
T = Trace of Precipitation, MM = Missing Value Source: NWS Daily Summary

Daily Weather History Graph

Daily Weather History Graph

Search for Another Location

Airport or City:

Trip Planner

Search our weather history database for the weather conditions in past years. The results will help you decide how hot, cold, wet, or windy it might be!

Date:

Astronomy

Dec. 27, 2013 Rise Set
Actual Time 7:36 AM CST 5:34 PM CST
Civil Twilight 7:08 AM CST 6:02 PM CST
Nautical Twilight 6:37 AM CST 6:33 PM CST
Astronomical Twilight 6:07 AM CST 7:03 PM CST
Moon 2:19 AM CST (12/27) 1:37 PM CST (12/27)
Length of Visible Light 10h 53m
Length of Day
9h 58m
Waning Crescent, 28% of the Moon is Illuminated
Dec 27
Waning Crescent
Jan 1
New
Jan 7
First Quarter
Jan 15
Full
Jan 23
Last Quarter

Hourly Weather History & Observations

Time (CST) Temp. Windchill Dew Point Humidity Pressure Visibility Wind Dir Wind Speed Gust Speed Precip Events Conditions
12:15 AM 28.9 °F - 23.9 °F 81% 30.37 in 10.0 mi Calm Calm - N/A   Clear
12:35 AM 28.4 °F - 23.5 °F 82% 30.37 in 10.0 mi Calm Calm - N/A   Scattered Clouds
12:55 AM 26.8 °F - 22.6 °F 84% 30.37 in 10.0 mi Calm Calm - N/A   Scattered Clouds
1:15 AM 25.3 °F - 22.1 °F 87% 30.36 in 10.0 mi Calm Calm - N/A   Clear
1:35 AM 25.7 °F - 22.6 °F 88% 30.37 in 10.0 mi Calm Calm - N/A   Clear
1:55 AM 26.4 °F - 22.8 °F 86% 30.37 in 10.0 mi Calm Calm - N/A   Clear
2:15 AM 26.6 °F - 23.0 °F 86% 30.38 in 10.0 mi Calm Calm - N/A   Clear
2:35 AM 26.6 °F - 23.0 °F 86% 30.37 in 10.0 mi Calm Calm - N/A   Scattered Clouds
2:55 AM 24.6 °F - 21.7 °F 89% 30.38 in 10.0 mi Calm Calm - N/A   Clear
3:15 AM 24.4 °F - 21.7 °F 89% 30.38 in 10.0 mi Calm Calm - N/A   Clear
3:35 AM 23.9 °F - 21.9 °F 92% 30.38 in 10.0 mi Calm Calm - N/A   Clear
3:55 AM 23.0 °F - 21.2 °F 93% 30.38 in 10.0 mi Calm Calm - N/A   Clear
4:15 AM 23.0 °F - 21.0 °F 92% 30.37 in 10.0 mi Calm Calm - N/A   Clear
4:35 AM 23.2 °F 18.7 °F 21.0 °F 91% 30.37 in 10.0 mi NE 3.5 mph - N/A   Clear
4:55 AM 24.4 °F 18.6 °F 21.7 °F 89% 30.37 in 10.0 mi East 4.6 mph - N/A   Clear
5:15 AM 23.0 °F - 20.8 °F 91% 30.37 in 10.0 mi Calm Calm - N/A   Clear
5:35 AM 23.0 °F - 21.0 °F 92% 30.37 in 10.0 mi Calm Calm - N/A   Clear
5:55 AM 23.7 °F - 21.2 °F 90% 30.37 in 10.0 mi Calm Calm - N/A   Clear
6:15 AM 22.6 °F 18.0 °F 20.7 °F 92% 30.38 in 10.0 mi SE 3.5 mph - N/A   Clear
6:35 AM 22.3 °F - 20.7 °F 93% 30.38 in 10.0 mi Calm Calm - N/A   Clear
6:55 AM 22.5 °F - 20.3 °F 91% 30.38 in 10.0 mi Calm Calm - N/A   Clear
7:15 AM 21.9 °F - 19.9 °F 92% 30.39 in 10.0 mi Calm Calm - N/A   Clear
7:35 AM 21.2 °F - 19.4 °F 93% 30.40 in 10.0 mi Calm Calm - N/A   Clear
7:55 AM 23.0 °F - 20.3 °F 89% 30.41 in 10.0 mi Calm Calm - N/A   Clear
8:15 AM 22.1 °F - 19.9 °F 91% 30.41 in 10.0 mi Calm Calm - N/A   Clear
8:35 AM 24.8 °F - 22.6 °F 91% 30.41 in 10.0 mi Calm Calm - N/A   Clear
8:55 AM 28.4 °F - 25.5 °F 89% 30.42 in 10.0 mi Calm Calm - N/A   Clear
9:15 AM 31.6 °F 28.3 °F 26.2 °F 80% 30.42 in 10.0 mi South 3.5 mph - N/A   Clear
9:35 AM 32.5 °F 29.3 °F 26.8 °F 79% 30.43 in 10.0 mi South 3.5 mph - N/A   Clear
9:55 AM 35.4 °F 32.6 °F 28.0 °F 75% 30.43 in 10.0 mi South 3.5 mph - N/A   Clear
10:15 AM 38.5 °F 36.1 °F 29.3 °F 70% 30.43 in 10.0 mi SSW 3.5 mph - N/A   Clear
10:35 AM 41.5 °F 39.6 °F 29.1 °F 61% 30.43 in 10.0 mi South 3.5 mph - N/A   Clear
10:55 AM 43.2 °F - 28.6 °F 56% 30.42 in 10.0 mi Calm Calm - N/A   Clear
11:15 AM 46.9 °F - 28.0 °F 48% 30.42 in 10.0 mi SSW 4.6 mph - N/A   Clear
11:35 AM 48.9 °F - 26.8 °F 42% 30.42 in 10.0 mi South 5.8 mph - N/A   Clear
11:55 AM 50.7 °F - 27.3 °F 40% 30.41 in 10.0 mi South 3.5 mph - N/A   Clear
12:15 PM 52.3 °F - 26.4 °F 37% 30.39 in 10.0 mi South 3.5 mph - N/A   Clear
12:35 PM 53.6 °F - 26.4 °F 35% 30.38 in 10.0 mi SSE 3.5 mph - N/A   Clear
12:55 PM 54.5 °F - 26.1 °F 33% 30.37 in 10.0 mi SSW 4.6 mph - N/A   Clear
1:15 PM 55.8 °F - 27.0 °F 33% 30.36 in 10.0 mi South 5.8 mph - N/A   Clear
1:35 PM 55.9 °F - 26.4 °F 32% 30.35 in 10.0 mi SSW 4.6 mph - N/A   Clear
1:55 PM 56.7 °F - 26.6 °F 32% 30.34 in 10.0 mi SSW 3.5 mph - N/A   Clear
2:15 PM 57.4 °F - 23.7 °F 27% 30.33 in 10.0 mi SE 5.8 mph - N/A   Clear
2:35 PM 57.9 °F - 24.3 °F 27% 30.33 in 10.0 mi South 3.5 mph - N/A   Clear
2:55 PM 58.5 °F - 22.6 °F 25% 30.33 in 10.0 mi South 5.8 mph - N/A   Clear
3:15 PM 56.5 °F - 19.9 °F 24% 30.33 in 10.0 mi SSE 4.6 mph - N/A   Clear
3:35 PM 56.1 °F - 22.5 °F 27% 30.34 in 10.0 mi SE 4.6 mph - N/A   Clear
3:55 PM 55.4 °F - 24.8 °F 31% 30.34 in 10.0 mi SE 4.6 mph - N/A   Clear
4:15 PM 56.3 °F - 25.5 °F 31% 30.34 in 10.0 mi ESE 8.1 mph - N/A   Clear
4:35 PM 55.0 °F - 25.5 °F 32% 30.33 in 10.0 mi SE 5.8 mph - N/A   Clear
4:55 PM 53.1 °F - 25.2 °F 34% 30.33 in 10.0 mi SE 3.5 mph - N/A   Clear
5:15 PM 52.3 °F - 25.2 °F 35% 30.32 in 10.0 mi ESE 3.5 mph - N/A   Clear
5:35 PM 50.7 °F - 25.3 °F 37% 30.32 in 10.0 mi Calm Calm - N/A   Clear
5:55 PM 49.3 °F - 25.3 °F 39% 30.32 in 10.0 mi Calm Calm - N/A   Clear
6:15 PM 47.3 °F - 25.7 °F 43% 30.32 in 10.0 mi ESE 3.5 mph - N/A   Clear
6:35 PM 46.2 °F 44.1 °F 25.7 °F 45% 30.32 in 10.0 mi ESE 4.6 mph - N/A   Clear
6:55 PM 45.5 °F 43.2 °F 25.7 °F 46% 30.33 in 10.0 mi ESE 4.6 mph - N/A   Clear
7:15 PM 45.1 °F 42.8 °F 25.7 °F 47% 30.33 in 10.0 mi ESE 4.6 mph - N/A   Clear
7:35 PM 45.0 °F 42.6 °F 25.5 °F 47% 30.32 in 10.0 mi ESE 4.6 mph - N/A   Clear
7:55 PM 45.3 °F 43.0 °F 25.2 °F 45% 30.33 in 10.0 mi ESE 4.6 mph - N/A   Clear
8:15 PM 45.9 °F 43.6 °F 24.3 °F 43% 30.33 in 10.0 mi SE 4.6 mph - N/A   Clear
8:35 PM 45.0 °F 43.5 °F 24.1 °F 44% 30.33 in 10.0 mi ESE 3.5 mph - N/A   Clear
8:55 PM 44.2 °F - 23.7 °F 44% 30.32 in 10.0 mi Calm Calm - N/A   Clear
9:15 PM 43.9 °F 42.3 °F 23.7 °F 45% 30.32 in 10.0 mi SE 3.5 mph - N/A   Clear
9:35 PM 43.3 °F 41.7 °F 24.4 °F 47% 30.32 in 10.0 mi SE 3.5 mph - N/A   Clear
9:55 PM 42.8 °F - 24.8 °F 49% 30.32 in 10.0 mi Calm Calm - N/A   Clear
10:15 PM 42.3 °F - 24.8 °F 50% 30.31 in 10.0 mi Calm Calm - N/A   Clear
10:35 PM 42.3 °F - 25.3 °F 51% 30.32 in 10.0 mi Calm Calm - N/A   Clear
10:55 PM 41.7 °F - 25.5 °F 53% 30.32 in 10.0 mi Calm Calm - N/A   Clear
11:15 PM 40.8 °F - 26.4 °F 57% 30.31 in 10.0 mi Calm Calm - N/A   Clear
11:35 PM 39.9 °F - 26.6 °F 59% 30.30 in 10.0 mi Calm Calm - N/A   Clear
11:55 PM 39.2 °F - 27.0 °F 62% 30.30 in 10.0 mi Calm Calm - N/A   Scattered Clouds